Weather History for Madrid, Spain

Change the Weather History Date:

Sunday, October 7, 2012

  Actual Average Record
Temperature  
Mean Temperature 68 °F -  
Max Temperature 83 °F 64 °F 83 °F (2012)
Min Temperature 54 °F 45 °F 41 °F (1996)
Cooling Degree Days 4    
Growing Degree Days 18 (Base 50)    
Moisture  
Dew Point 53 °F    
Average Humidity 60    
Maximum Humidity 94    
Minimum Humidity 29    
Precipitation  
Precipitation 0.00 in 0.06 in - ()
Sea Level Pressure  
Sea Level Pressure 30.21 in    
Wind  
Wind Speed 2 mph ()    
Max Wind Speed 5 mph    
Max Gust Speed -    
Visibility 13.0 miles    
Events      
Averages and records for this station are not official NWS values.
T = Trace of Precipitation, MM = Missing Value Source: Averaged Metar Reports

Daily Weather History Graph

Daily Weather History Graph

Search for Another Location

Airport:

Trip Planner

Search our weather history database for the weather conditions in past years. The results will help you decide how hot, cold, wet, or windy it might be!

Date:

Astronomy

Oct. 07, 2012 Rise Set
Actual Time 8:17 AM CEST 7:46 PM CEST
Civil Twilight 7:49 AM CEST 8:13 PM CEST
Nautical Twilight 7:18 AM CEST 8:44 PM CEST
Astronomical Twilight 6:46 AM CEST 9:16 PM CEST
Moon No Moon Rise 2:45 PM CEST (10/7)
Length of Visible Light 12h 23m
Length of Day
11h 29m
Waning Gibbous, 58% of the Moon is Illuminated
Oct 7
Waning Gibbous
Oct 8
Last Quarter
Oct 15
New
Oct 22
First Quarter
Oct 29
Full

Hourly Weather History & Observations

Time (CEST) Temp. Dew Point Humidity Pressure Visibility Wind Dir Wind Speed Gust Speed Precip Events Conditions
12:00 AM 64.4 °F 53.6 °F 68% 30.21 in - ESE 3.5 mph - N/A   Clear
12:30 AM 64.4 °F 53.6 °F 68% 30.21 in - SE 2.3 mph - N/A   Clear
1:00 AM 64.4 °F 53.6 °F 68% 30.21 in - SE 3.5 mph - N/A   Clear
1:30 AM 62.6 °F 53.6 °F 72% 30.21 in - NNE 3.5 mph - N/A   Clear
2:00 AM 61 °F 52 °F 65% 30.18 in 12 mi Calm Calm - -   Clear
2:00 AM 62.6 °F 53.6 °F 72% 30.21 in - Calm Calm - N/A   Clear
2:30 AM 62.6 °F 53.6 °F 72% 30.21 in - South 1.2 mph - N/A   Clear
3:00 AM 62.6 °F 53.6 °F 72% 30.21 in - Calm Calm - N/A   Clear
3:30 AM 59.0 °F 53.6 °F 82% 30.21 in - North 3.5 mph - N/A   Clear
4:00 AM 59.0 °F 53.6 °F 82% 30.21 in - NNE 3.5 mph - N/A   Clear
4:30 AM 59.0 °F 53.6 °F 82% 30.21 in - Calm Calm - N/A   Clear
5:00 AM 60.8 °F 53.6 °F 77% 30.21 in - NNW 1.2 mph - N/A   Clear
5:30 AM 59.0 °F 53.6 °F 82% 30.21 in - NE 1.2 mph - N/A   Clear
6:00 AM 57.2 °F 53.6 °F 88% 30.21 in - North 3.5 mph - N/A   Clear
6:30 AM 57.2 °F 55.4 °F 94% 30.21 in - NNE 2.3 mph - N/A   Clear
7:00 AM 57.2 °F 53.6 °F 88% 30.21 in - Calm Calm - N/A   Clear
7:30 AM 57.2 °F 51.8 °F 82% 30.21 in - Calm Calm - N/A   Clear
8:00 AM 55 °F 50 °F 78% 30.22 in 7 mi Calm Calm - -   Clear
8:00 AM 55.4 °F 51.8 °F 88% 30.21 in - Calm Calm - N/A   Clear
8:30 AM 55.4 °F 53.6 °F 94% 30.21 in - North 3.5 mph - N/A   Clear
9:00 AM 57.2 °F 55.4 °F 94% 30.24 in - Calm Calm - N/A   Clear
9:30 AM 59.0 °F 53.6 °F 82% 30.24 in - Calm Calm - N/A   Clear
10:00 AM 60.8 °F 53.6 °F 77% 30.24 in - South 1.2 mph - N/A   Clear
10:30 AM 64.4 °F 55.4 °F 73% 30.27 in - Calm Calm - N/A   Clear
11:00 AM 64.4 °F 53.6 °F 68% 30.27 in - Variable 2.3 mph - N/A   Clear
11:30 AM 66.2 °F 53.6 °F 64% 30.27 in - Variable 2.3 mph - N/A   Clear
12:00 PM 69.8 °F 53.6 °F 56% 30.27 in - SSW 2.3 mph - N/A   Clear
12:30 PM 71.6 °F 51.8 °F 50% 30.27 in - Variable 2.3 mph - N/A   Clear
1:00 PM 73.4 °F 53.6 °F 50% 30.24 in - SSW 1.2 mph - N/A   Clear
1:30 PM 75.2 °F 51.8 °F 44% 30.24 in - SSW 2.3 mph - N/A   Clear
2:00 PM 75 °F 49 °F 29% 30.15 in 14 mi NW 1.2 mph - -   Clear
2:00 PM 77.0 °F 51.8 °F 41% 30.24 in - West 2.3 mph - N/A   Clear
2:30 PM 77.0 °F 51.8 °F 41% 30.24 in - SSE 3.5 mph - N/A   Clear
3:00 PM 78.8 °F 51.8 °F 39% 30.21 in - Variable 2.3 mph - N/A   Clear
3:30 PM 78.8 °F 50.0 °F 36% 30.21 in - SSE 2.3 mph - N/A   Clear
4:00 PM 82.4 °F 50.0 °F 32% 30.21 in - Variable 2.3 mph - N/A   Clear
4:30 PM 80.6 °F 50.0 °F 34% 30.18 in - South 3.5 mph - N/A   Clear
5:00 PM 82.4 °F 50.0 °F 32% 30.18 in - South 2.3 mph - N/A   Clear
5:30 PM 82.4 °F 50.0 °F 32% 30.18 in - Variable 2.3 mph - N/A   Clear
6:00 PM 82.4 °F 50.0 °F 32% 30.18 in - Calm Calm - N/A   Clear
6:30 PM 82.4 °F 50.0 °F 32% 30.18 in - Calm Calm - N/A   Clear
7:00 PM 82.4 °F 50.0 °F 32% 30.18 in - Calm Calm - N/A   Clear
7:30 PM 78.8 °F 53.6 °F 42% 30.18 in - Variable 2.3 mph - N/A   Clear
8:00 PM 76 °F 50 °F 29% 30.10 in 19 mi SSW 2.3 mph - -   Clear
8:00 PM 78.8 °F 51.8 °F 39% 30.18 in - Variable 2.3 mph - N/A   Clear
8:30 PM 78.8 °F 53.6 °F 42% 30.18 in - SSW 4.6 mph - N/A   Clear
9:00 PM 77.0 °F 53.6 °F 44% 30.18 in - SSW 4.6 mph - N/A   Clear
9:30 PM 77.0 °F 51.8 °F 41% 30.21 in - WSW 4.6 mph - N/A   Clear
10:00 PM 77.0 °F 53.6 °F 44% 30.21 in - WSW 3.5 mph - N/A   Clear
10:30 PM 71.6 °F 53.6 °F 53% 30.21 in - Calm Calm - N/A   Clear
11:00 PM 69.8 °F 55.4 °F 60% 30.21 in - Variable 2.3 mph - N/A   Clear
11:30 PM 68.0 °F 55.4 °F 64% 30.21 in - Calm Calm - N/A   Clear